TimeEDT,TemperatureF,Dew PointF,Humidity,Sea Level PressureIn,VisibilityMPH,Wind Direction,Wind SpeedMPH,Gust SpeedMPH,PrecipitationIn,Events,Conditions,WindDirDegrees,DateUTC
12:15 AM,50.0,44.6,82,30.23,10.0,Calm,Calm,-,N/A,,Scattered Clouds,0,2013-05-28 04:15:00
12:35 AM,50.0,44.6,82,30.22,10.0,ENE,3.5,-,N/A,,Scattered Clouds,60,2013-05-28 04:35:00
12:55 AM,50.0,44.6,82,30.22,10.0,Calm,Calm,-,N/A,,Scattered Clouds,0,2013-05-28 04:55:00
1:15 AM,50.0,44.6,82,30.22,10.0,NNE,3.5,-,N/A,,Clear,30,2013-05-28 05:15:00
1:35 AM,48.2,44.6,87,30.21,10.0,NE,3.5,-,N/A,,Clear,50,2013-05-28 05:35:00
1:55 AM,48.2,44.6,87,30.21,10.0,Calm,Calm,-,N/A,,Scattered Clouds,0,2013-05-28 05:55:00
2:15 AM,50.0,44.6,82,30.21,10.0,NE,3.5,-,N/A,,Mostly Cloudy,40,2013-05-28 06:15:00
2:35 AM,50.0,44.6,82,30.21,10.0,Calm,Calm,-,N/A,,Mostly Cloudy,0,2013-05-28 06:35:00
2:55 AM,50.0,44.6,82,30.21,10.0,Calm,Calm,-,N/A,,Mostly Cloudy,0,2013-05-28 06:55:00
3:15 AM,50.0,44.6,82,30.20,10.0,NNE,3.5,-,N/A,,Overcast,30,2013-05-28 07:15:00
3:35 AM,50.0,44.6,82,30.19,10.0,NNE,5.8,-,N/A,,Mostly Cloudy,20,2013-05-28 07:35:00
3:55 AM,48.2,44.6,87,30.19,10.0,NE,3.5,-,N/A,,Mostly Cloudy,40,2013-05-28 07:55:00
4:15 AM,48.2,44.6,87,30.19,10.0,NNE,4.6,-,N/A,,Mostly Cloudy,30,2013-05-28 08:15:00
4:35 AM,50.0,44.6,82,30.19,10.0,NNE,4.6,-,N/A,,Overcast,30,2013-05-28 08:35:00
4:55 AM,48.2,44.6,87,30.19,10.0,NNE,3.5,-,N/A,,Mostly Cloudy,30,2013-05-28 08:55:00
5:15 AM,46.4,44.6,93,30.20,10.0,Calm,Calm,-,N/A,,Scattered Clouds,0,2013-05-28 09:15:00
5:35 AM,46.4,44.6,93,30.21,10.0,Calm,Calm,-,N/A,,Scattered Clouds,0,2013-05-28 09:35:00
5:55 AM,46.4,44.6,93,30.22,10.0,Calm,Calm,-,N/A,,Mostly Cloudy,0,2013-05-28 09:55:00
6:15 AM,46.4,44.6,93,30.22,10.0,Calm,Calm,-,N/A,,Scattered Clouds,0,2013-05-28 10:15:00
6:35 AM,46.4,42.8,87,30.23,10.0,NNE,4.6,-,N/A,,Mostly Cloudy,20,2013-05-28 10:35:00
6:55 AM,46.4,44.6,93,30.24,10.0,NNE,3.5,-,N/A,,Overcast,20,2013-05-28 10:55:00
7:15 AM,50.0,44.6,82,30.24,10.0,North,3.5,-,N/A,,Mostly Cloudy,10,2013-05-28 11:15:00
7:35 AM,50.0,46.4,87,30.24,10.0,Calm,Calm,-,N/A,,Clear,0,2013-05-28 11:35:00
7:55 AM,51.8,46.4,82,30.24,10.0,NNE,3.5,-,N/A,,Scattered Clouds,30,2013-05-28 11:55:00
8:15 AM,53.6,48.2,82,30.25,10.0,Calm,Calm,-,N/A,,Clear,0,2013-05-28 12:15:00
8:35 AM,53.6,48.2,82,30.25,10.0,North,3.5,-,N/A,,Clear,10,2013-05-28 12:35:00
8:55 AM,55.4,50.0,82,30.25,10.0,Calm,Calm,-,N/A,,Scattered Clouds,0,2013-05-28 12:55:00
9:15 AM,59.0,50.0,72,30.26,10.0,Calm,Calm,-,N/A,,Mostly Cloudy,0,2013-05-28 13:15:00
9:35 AM,60.8,50.0,68,30.26,10.0,Calm,Calm,-,N/A,,Mostly Cloudy,0,2013-05-28 13:35:00
9:55 AM,60.8,50.0,68,30.26,10.0,WSW,3.5,-,N/A,,Scattered Clouds,240,2013-05-28 13:55:00
10:15 AM,62.6,51.8,68,30.26,10.0,SSW,3.5,-,N/A,,Scattered Clouds,210,2013-05-28 14:15:00
10:35 AM,64.4,51.8,64,30.26,10.0,SSW,6.9,-,N/A,,Clear,210,2013-05-28 14:35:00
10:55 AM,68.0,51.8,56,30.25,10.0,SW,8.1,-,N/A,,Clear,220,2013-05-28 14:55:00
11:15 AM,68.0,51.8,56,30.25,10.0,WSW,6.9,-,N/A,,Clear,240,2013-05-28 15:15:00
11:35 AM,68.0,51.8,56,30.24,10.0,WSW,6.9,-,N/A,,Clear,240,2013-05-28 15:35:00
11:55 AM,69.8,51.8,53,30.23,10.0,SSW,8.1,-,N/A,,Clear,210,2013-05-28 15:55:00
12:15 PM,69.8,53.6,56,30.22,10.0,SW,11.5,16.1,N/A,,Clear,230,2013-05-28 16:15:00
12:35 PM,71.6,50.0,46,30.22,10.0,WSW,11.5,16.1,N/A,,Clear,240,2013-05-28 16:35:00
12:55 PM,73.4,50.0,44,30.23,10.0,SW,12.7,16.1,N/A,,Scattered Clouds,230,2013-05-28 16:55:00
1:15 PM,73.4,50.0,44,30.22,10.0,West,6.9,18.4,N/A,,Scattered Clouds,260,2013-05-28 17:15:00
1:35 PM,73.4,50.0,44,30.22,10.0,SW,10.4,-,N/A,,Scattered Clouds,230,2013-05-28 17:35:00
1:55 PM,77.0,44.6,32,30.22,10.0,West,11.5,16.1,N/A,,Clear,260,2013-05-28 17:55:00
2:15 PM,77.0,44.6,32,30.21,10.0,SW,11.5,-,N/A,,Scattered Clouds,230,2013-05-28 18:15:00
2:35 PM,77.0,44.6,32,30.20,10.0,WSW,9.2,17.3,N/A,,Scattered Clouds,240,2013-05-28 18:35:00
2:55 PM,75.2,42.8,31,30.19,10.0,West,6.9,-,N/A,,Clear,280,2013-05-28 18:55:00
3:15 PM,77.0,44.6,32,30.19,10.0,WNW,4.6,-,N/A,,Scattered Clouds,290,2013-05-28 19:15:00
3:35 PM,77.0,44.6,32,30.19,10.0,WSW,9.2,-,N/A,,Scattered Clouds,240,2013-05-28 19:35:00
3:55 PM,75.2,44.6,34,30.19,10.0,WSW,4.6,-,N/A,,Mostly Cloudy,240,2013-05-28 19:55:00
4:15 PM,75.2,44.6,34,30.19,10.0,WSW,4.6,-,N/A,,Mostly Cloudy,250,2013-05-28 20:15:00
4:35 PM,75.2,44.6,34,30.18,10.0,WSW,6.9,-,N/A,,Scattered Clouds,240,2013-05-28 20:35:00
4:55 PM,77.0,42.8,29,30.18,10.0,WSW,6.9,-,N/A,,Clear,240,2013-05-28 20:55:00
5:15 PM,77.0,42.8,29,30.17,10.0,WSW,10.4,-,N/A,,Clear,240,2013-05-28 21:15:00
5:35 PM,77.0,42.8,29,30.17,10.0,SW,8.1,-,N/A,,Clear,230,2013-05-28 21:35:00
5:55 PM,77.0,44.6,32,30.17,10.0,SW,9.2,-,N/A,,Clear,220,2013-05-28 21:55:00
6:15 PM,77.0,42.8,29,30.17,10.0,WSW,9.2,-,N/A,,Scattered Clouds,240,2013-05-28 22:15:00
6:35 PM,75.2,42.8,31,30.16,10.0,SW,9.2,-,N/A,,Mostly Cloudy,220,2013-05-28 22:35:00
6:55 PM,75.2,44.6,34,30.15,10.0,SW,8.1,-,N/A,,Mostly Cloudy,220,2013-05-28 22:55:00
7:15 PM,73.4,42.8,33,30.16,10.0,SW,8.1,-,N/A,,Clear,230,2013-05-28 23:15:00
7:35 PM,71.6,51.8,50,30.16,10.0,SSW,8.1,16.1,N/A,,Clear,210,2013-05-28 23:35:00
7:55 PM,71.6,51.8,50,30.17,10.0,SSW,9.2,-,N/A,,Clear,210,2013-05-28 23:55:00
8:15 PM,69.8,53.6,56,30.17,10.0,SSW,8.1,-,N/A,,Clear,200,2013-05-29 00:15:00
8:35 PM,68.0,53.6,60,30.17,10.0,South,4.6,-,N/A,,Clear,190,2013-05-29 00:35:00
8:55 PM,66.2,51.8,60,30.17,10.0,SSW,3.5,-,N/A,,Clear,210,2013-05-29 00:55:00
9:15 PM,64.4,51.8,64,30.17,10.0,SSW,3.5,-,N/A,,Clear,200,2013-05-29 01:15:00
9:35 PM,64.4,51.8,64,30.17,10.0,South,3.5,-,N/A,,Clear,190,2013-05-29 01:35:00
9:55 PM,64.4,51.8,64,30.18,10.0,Calm,Calm,-,N/A,,Clear,0,2013-05-29 01:55:00
10:15 PM,62.6,51.8,68,30.19,10.0,Calm,Calm,-,N/A,,Clear,0,2013-05-29 02:15:00
10:35 PM,60.8,51.8,72,30.19,10.0,Calm,Calm,-,N/A,,Clear,0,2013-05-29 02:35:00
10:55 PM,62.6,53.6,72,30.19,10.0,Calm,Calm,-,N/A,,Clear,0,2013-05-29 02:55:00
11:15 PM,62.6,51.8,68,30.19,10.0,Calm,Calm,-,N/A,,Clear,0,2013-05-29 03:15:00
11:35 PM,60.8,51.8,72,30.19,10.0,Calm,Calm,-,N/A,,Clear,0,2013-05-29 03:35:00
11:55 PM,59.0,51.8,77,30.20,10.0,Calm,Calm,-,N/A,,Clear,0,2013-05-29 03:55:00